Location: Bacharowice
(49.9333°N, 19.5833°E)
Time: 11:55:25
(UTC+00:00)

EP 1 - Pass Details

Date: 11 May 2021
Orbit: 314 x 1668 km, 63.3° (Epoch: 25 August)

Event Time Altitude Azimuth Distance (km) Brightness Sun altitude
Exits shadow 20:58:09 82° 358° (N) 353 4.3 -18.5°
Drops below altitude 10° 21:00:41 10° 42° (NE) 1,240 7.4 -18.6°
Sets 21:02:32 0° 43° (NE) 2,060 8.6 -18.8°
